Blythe Airport
KBLH : now visible

Airfield :











YOU CAN JOIN US ON...

 
LOGIN :

Register | Disclaimer

   EN    FR    IT 

 









Legend :    VFR   Marginal VFR   IFR   Intensive IFR   Very Intensive IFR
Visi :
Ceiling :
>= 8 km
>= 3000ft
5 to 8 km
1000 to 3000 ft
1500m to 5 km
500 to 1000 ft
800 to 1500m
200 to 500 ft
< 800m
< 200 ft
Symbols :   Thunderstorms  Fog  Heavy snow  Heavy precipitations  Wind > 20 kt







- Airport Elevation : 399 ft


KBLH - Blythe

CURRENT METAR :
  • 212152Z AUTO 06007KT 10SM CLR 35/M03 A2981 RMK AO2 SLP087 T03501028

EXPIRED METARs :
  • 212052Z AUTO 10SM CLR 34/M02 A2983 RMK AO2 SLP095 T03391022 58021
  • 211952Z AUTO VRB03KT 10SM CLR 34/M02 A2985 RMK AO2 SLP102 T03391017

TAF KBLH
Valid from the 21 at 18:00 until the 22 at 18:00 UTC


211731Z 2118/2218 12006KT P6SM SKC
FM220400 VRB05KT P6SM SKC
No reported NOTAMs for that airfield.



MET'MAP, your aeronautical weather chart ! - Copyright ORBIFLY December 2007 - Disclaimer

ORBIFLY MET'MAP TEAM :

Programming & Development : Alexandra Zaïnal
Concept & Development : Baudouin d'Aumeries
Co-Development & Prog : Marc-Olivier Méhu
Technical & hardware support : Manuel Goepfert

Contact : metmap@orbifly.com




SOURCES & CREDITS :

   NOAA       Earth
Advisory